• In Czech Republic
  • List of Countries
  • For 7 days
  • Water Temperature
  • Satellite Maps
  • Weather Map
  • Weather Widgets
  • user-avatar
    Login

    Hourly Weather Albany

    Today, 19 July, Thursday

    Time Temperature Precipitation Wind Pressure Humidity
    00:00 +9°C° 0 mm 6 mps 761 mmHg 73%
    01:00 +9°C° 0 mm 5 mps 761 mmHg 72%
    02:00 +10°C° 0 mm 4 mps 761 mmHg 72%
    03:00 +10°C° 0 mm 4 mps 762 mmHg 72%
    04:00 +10°C° 0 mm 4 mps 762 mmHg 73%
    05:00 +10°C° 0 mm 4 mps 762 mmHg 73%
    06:00 +10°C° 0 mm 4 mps 762 mmHg 74%
    07:00 +10°C° 0 mm 3 mps 763 mmHg 75%
    08:00 +10°C° 0 mm 3 mps 763 mmHg 76%
    09:00 +11°C° 0 mm 3 mps 763 mmHg 71%
    10:00 +13°C° 0 mm 2 mps 763 mmHg 66%
    11:00 +14°C° 0 mm 2 mps 764 mmHg 61%
    12:00 +14°C° 0 mm 2 mps 763 mmHg 61%
    13:00 +14°C° 0 mm 2 mps 763 mmHg 61%
    14:00 +14°C° 0 mm 1 mps 763 mmHg 61%
    15:00 +14°C° 0 mm 1 mps 762 mmHg 64%
    16:00 +13°C° 0 mm 1 mps 762 mmHg 66%
    17:00 +12°C° 0 mm 0 mps 762 mmHg 68%
    18:00 +12°C° 0 mm 1 mps 762 mmHg 68%
    19:00 +12°C° 0 mm 1 mps 762 mmHg 69%
    20:00 +10°C° 0 mm 2 mps 763 mmHg 70%
    21:00 +10°C° 0 mm 2 mps 762 mmHg 72%
    22:00 +9°C° 0 mm 3 mps 762 mmHg 75%
    23:00 +8°C° 0 mm 3 mps 762 mmHg 77%

    Tomorrow, 20 July, Friday

    Time Temperature Precipitation Wind Pressure Humidity
    00:00 +7°C° 0 mm 4 mps 761 mmHg 76%
    01:00 +7°C° 0 mm 4 mps 761 mmHg 75%
    02:00 +7°C° 0 mm 5 mps 760 mmHg 75%
    03:00 +7°C° 0 mm 5 mps 760 mmHg 73%
    04:00 +7°C° 0 mm 6 mps 759 mmHg 72%
    05:00 +7°C° 0 mm 6 mps 758 mmHg 71%
    06:00 +8°C° 0 mm 6 mps 758 mmHg 71%
    07:00 +8°C° 0 mm 7 mps 758 mmHg 71%
    08:00 +8°C° 0 mm 7 mps 757 mmHg 71%
    09:00 +10°C° 0 mm 7 mps 757 mmHg 67%
    10:00 +13°C° 0 mm 8 mps 756 mmHg 63%
    11:00 +16°C° 0 mm 8 mps 755 mmHg 59%
    12:00 +16°C° 0 mm 8 mps 754 mmHg 60%
    13:00 +17°C° 0 mm 9 mps 753 mmHg 61%
    14:00 +17°C° 0 mm 9 mps 752 mmHg 62%
    15:00 +17°C° 0 mm 8 mps 752 mmHg 64%
    16:00 +17°C° 0 mm 8 mps 752 mmHg 65%
    17:00 +17°C° 0 mm 7 mps 752 mmHg 67%
    18:00 +16°C° 0.3 mm 8 mps 752 mmHg 73%
    19:00 +15°C° 0.3 mm 8 mps 752 mmHg 79%
    20:00 +13°C° 0.3 mm 8 mps 752 mmHg 85%
    21:00 +13°C° 0.4 mm 8 mps 752 mmHg 86%
    22:00 +13°C° 0.4 mm 8 mps 751 mmHg 87%
    23:00 +13°C° 0.4 mm 8 mps 751 mmHg 87%

    Day after tomorrow, 21 July, Saturday

    Time Temperature Precipitation Wind Pressure Humidity
    00:00 +13°C° 0.8 mm 8 mps 750 mmHg 88%
    01:00 +13°C° 0.8 mm 8 mps 750 mmHg 89%
    02:00 +15°C° 0.8 mm 8 mps 749 mmHg 89%
    03:00 +15°C° 1.3 mm 8 mps 749 mmHg 90%
    04:00 +15°C° 1.3 mm 8 mps 749 mmHg 91%
    05:00 +15°C° 1.3 mm 7 mps 748 mmHg 91%
    06:00 +14°C° 1.9 mm 7 mps 748 mmHg 91%
    07:00 +14°C° 1.9 mm 6 mps 748 mmHg 91%
    08:00 +13°C° 1.9 mm 5 mps 748 mmHg 90%
    09:00 +14°C° 0.1 mm 5 mps 748 mmHg 87%
    10:00 +15°C° 0.1 mm 6 mps 748 mmHg 83%
    11:00 +15°C° 0.1 mm 6 mps 748 mmHg 79%
    12:00 +16°C° 0.1 mm 6 mps 748 mmHg 74%
    13:00 +17°C° 0.1 mm 6 mps 747 mmHg 69%
    14:00 +17°C° 0.1 mm 6 mps 747 mmHg 64%
    15:00 +16°C° 0.1 mm 6 mps 746 mmHg 67%
    16:00 +16°C° 0.1 mm 6 mps 746 mmHg 70%
    17:00 +15°C° 0.1 mm 6 mps 746 mmHg 73%
    18:00 +14°C° 0.1 mm 6 mps 746 mmHg 75%
    19:00 +14°C° 0.1 mm 7 mps 746 mmHg 77%
    20:00 +12°C° 0.1 mm 7 mps 746 mmHg 80%
    21:00 +12°C° 0 mm 8 mps 745 mmHg 79%
    22:00 +12°C° 0 mm 8 mps 745 mmHg 79%
    23:00 +12°C° 0 mm 9 mps 745 mmHg 78%

    22 July, Sunday

    Time Temperature Precipitation Wind Pressure Humidity
    00:00 +12°C° 0.1 mm 9 mps 744 mmHg 77%
    01:00 +12°C° 0.1 mm 10 mps 744 mmHg 76%
    02:00 +13°C° 0.1 mm 10 mps 743 mmHg 75%
    03:00 +12°C° 0.5 mm 11 mps 743 mmHg 77%
    04:00 +12°C° 0.5 mm 11 mps 743 mmHg 79%
    05:00 +12°C° 0.5 mm 11 mps 743 mmHg 80%
    06:00 +11°C° 0.1 mm 11 mps 744 mmHg 77%
    07:00 +11°C° 0.1 mm 11 mps 745 mmHg 73%
    08:00 +11°C° 0.1 mm 10 mps 745 mmHg 70%
    09:00 +12°C° 0 mm 10 mps 745 mmHg 63%
    10:00 +12°C° 0 mm 10 mps 746 mmHg 56%
    11:00 +13°C° 0 mm 10 mps 746 mmHg 49%
    12:00 +14°C° 0 mm 10 mps 745 mmHg 46%
    13:00 +14°C° 0 mm 10 mps 744 mmHg 43%
    14:00 +16°C° 0 mm 10 mps 744 mmHg 39%
    15:00 +13°C° 0.7 mm 11 mps 744 mmHg 49%
    16:00 +12°C° 0.7 mm 12 mps 744 mmHg 59%
    17:00 +10°C° 0.7 mm 12 mps 744 mmHg 69%
    18:00 +9°C° 0.7 mm 11 mps 744 mmHg 73%
    19:00 +9°C° 0.7 mm 11 mps 745 mmHg 78%
    20:00 +8°C° 0.7 mm 10 mps 745 mmHg 82%
    21:00 +8°C° 1.3 mm 10 mps 746 mmHg 81%
    22:00 +8°C° 1.3 mm 10 mps 746 mmHg 81%
    23:00 +8°C° 1.3 mm 9 mps 747 mmHg 80%

    23 July, Monday

    Time Temperature Precipitation Wind Pressure Humidity
    00:00 +8°C° 0.1 mm 9 mps 747 mmHg 79%
    01:00 +8°C° 0.1 mm 9 mps 748 mmHg 78%
    02:00 +8°C° 0.1 mm 9 mps 748 mmHg 77%
    03:00 +8°C° 0.1 mm 9 mps 749 mmHg 77%
    04:00 +8°C° 0.1 mm 9 mps 749 mmHg 77%
    05:00 +8°C° 0.1 mm 9 mps 749 mmHg 78%
    06:00 +8°C° 0.1 mm 9 mps 750 mmHg 77%
    07:00 +8°C° 0.1 mm 9 mps 750 mmHg 76%
    08:00 +10°C° 0.1 mm 9 mps 751 mmHg 75%
    09:00 +11°C° 0.1 mm 10 mps 751 mmHg 70%
    10:00 +12°C° 0.1 mm 10 mps 751 mmHg 65%
    11:00 +14°C° 0.1 mm 10 mps 752 mmHg 60%
    12:00 +14°C° 0.1 mm 10 mps 751 mmHg 59%
    13:00 +14°C° 0.1 mm 10 mps 751 mmHg 59%
    14:00 +14°C° 0.1 mm 10 mps 751 mmHg 59%
    15:00 +14°C° 0.1 mm 10 mps 751 mmHg 62%
    16:00 +13°C° 0.1 mm 10 mps 752 mmHg 65%
    17:00 +13°C° 0.1 mm 9 mps 753 mmHg 68%
    18:00 +12°C° 0.1 mm 9 mps 753 mmHg 70%
    19:00 +12°C° 0.1 mm 9 mps 753 mmHg 72%
    20:00 +12°C° 0.1 mm 9 mps 754 mmHg 74%
    21:00 +11°C° 0.1 mm 8 mps 754 mmHg 75%
    22:00 +11°C° 0.1 mm 8 mps 754 mmHg 76%
    23:00 +11°C° 0.1 mm 8 mps 754 mmHg 77%

    24 July, Tuesday

    Time Temperature Precipitation Wind Pressure Humidity
    00:00 +11°C° 0.1 mm 8 mps 754 mmHg 78%
    01:00 +11°C° 0.1 mm 8 mps 754 mmHg 79%
    02:00 +11°C° 0.1 mm 8 mps 755 mmHg 80%
    03:00 +11°C° 0.1 mm 7 mps 755 mmHg 81%
    04:00 +11°C° 0.1 mm 7 mps 755 mmHg 83%
    05:00 +11°C° 0.1 mm 6 mps 755 mmHg 84%
    06:00 +10°C° 0.1 mm 6 mps 756 mmHg 85%
    07:00 +10°C° 0.1 mm 6 mps 756 mmHg 86%
    08:00 +10°C° 0.1 mm 5 mps 756 mmHg 87%
    09:00 +13°C° 0.2 mm 5 mps 757 mmHg 83%
    10:00 +14°C° 0.2 mm 5 mps 757 mmHg 78%
    11:00 +15°C° 0.2 mm 5 mps 757 mmHg 74%
    12:00 +15°C° 0.2 mm 5 mps 757 mmHg 73%
    13:00 +17°C° 0.2 mm 4 mps 757 mmHg 72%
    14:00 +17°C° 0.2 mm 4 mps 756 mmHg 71%
    15:00 +15°C° 0.1 mm 4 mps 756 mmHg 72%
    16:00 +16°C° 0.1 mm 3 mps 756 mmHg 73%
    17:00 +14°C° 0.1 mm 3 mps 757 mmHg 74%
    18:00 +14°C° 0.1 mm 3 mps 757 mmHg 77%
    19:00 +13°C° 0.1 mm 4 mps 757 mmHg 80%
    20:00 +13°C° 0.1 mm 4 mps 757 mmHg 83%
    21:00 +13°C° 0.1 mm 5 mps 756 mmHg 84%
    22:00 +11°C° 0.1 mm 6 mps 756 mmHg 84%
    23:00 +11°C° 0.1 mm 6 mps 756 mmHg 85%
    Show more